ORBCOMM FM118

Last updated on Tue Sep 22 2026 00:03:23 GMT+0000 (Coordinated Universal Time)

1 41183U 15081E 26264.35772195 .00000229 00000+0 84522-4 0 9998 2 41183 47.0035 267.0359 0001753 125.4296 234.6754 14.58976452571774
UTC large
Height (km)
Speed (km/s)
/
Latitude / Longitude
Inclination (degrees)
Orbital Period (minutes)
Azimuth
Elevation
Range (km)
Doppler Factor

Next 0 passes for location: London (51.5072 / 0.1276)

No passes found over London.
ORBCOMM FM118